This demonstration page uses our WeatherBlox Daily Observations layout. Learn more.

Left ArrowRight Arrow

41.86663, -103.66717

Hourly Observations for March 9, 2021

Temp ( °F °C ) Dew Point ( °F °C ) Humidity (%) Winds ( mph kmh ) Pressure ( in mb ) Visibility ( mi km ) Precip ( " mm )
12:53 am 00:53 Clear 34 1.1 24 -4.4 67 67 Calm 29.82 1010 10 16.0934 0 0
1:53 am 01:53 Clear 33 0.6 24 -4.4 70 70 Calm 29.79 1009 10 16.0934 0 0
2:53 am 02:53 Clear 31 -0.6 22 -5.6 69 69 NNE 3 6 29.77 1008 10 16.0934 0 0
3:53 am 03:53 Clear 32 0 24 -4.4 73 73 Calm 29.76 1008 10 16.0934 0 0
4:53 am 04:53 Clear 31 -0.6 23 -5 72 72 ENE 5 7 29.77 1008 10 16.0934 0 0
5:53 am 05:53 Clear 29 -1.7 22 -5.6 75 75 Calm 29.82 1010 10 16.0934 0 0
6:53 am 06:53 Sunny 31 -0.6 24 -4.4 76 76 NW 6 9 29.84 1011 10 16.0934 0 0
7:53 am 07:53 Sunny 43 6.1 29 -1.7 58 58 NNE 6 9 29.83 1010 10 16.0934 0 0
8:53 am 08:53 Sunny 48 8.9 30 -1.1 50 50 WNW 7 11 29.83 1010 10 16.0934 0 0
9:53 am 09:53 Sunny 53 11.7 30 -1.1 41 41 undefined N/A 29.81 1010 10 16.0934 0 0
10:53 am 10:53 Sunny 65 18.3 26 -3.3 23 23 VRB 6 9 29.77 1008 10 16.0934 0 0
11:53 am 11:53 Sunny 66 18.9 20 -6.7 17 17 NW 18 30 29.75 1007 10 16.0934 0 0
12:53 pm 12:53 Sunny 66 18.9 21 -6.1 18 18 NNW 14 22 29.76 1008 10 16.0934 0 0
1:53 pm 13:53 Sunny 63 17.2 23 -5 22 22 N 16 26 29.77 1008 10 16.0934 0 0
2:53 pm 14:53 Sunny 63 17.2 27 -2.8 26 26 NNE 17 28 29.77 1008 10 16.0934 0 0
3:53 pm 15:53 Sunny 58 14.4 24 -4.4 27 27 N 18 30 29.76 1008 10 16.0934 0 0
4:53 pm 16:53 Sunny 55 12.8 25 -3.9 31 31 N 17 28 29.77 1008 10 16.0934 0 0
5:53 pm 17:53 Sunny 50 10 28 -2.2 43 43 NNE 16 26 29.78 1009 10 16.0934 0 0
6:53 pm 18:53 Partly Cloudy 49 9.4 29 -1.7 46 46 NNE 13 20 29.78 1009 10 16.0934 0 0
7:53 pm 19:53 Clear 48 8.9 30 -1.1 50 50 NE 21 33 29.74 1007 10 16.0934 0 0
8:53 pm 20:53 Cloudy 45 7.2 30 -1.1 56 56 NE 28 44 29.72 1007 10 16.0934 0 0
9:53 pm 21:53 Cloudy 44 6.7 29 -1.7 55 55 NE 26 43 29.71 1006 10 16.0934 0 0
10:53 pm 22:53 Cloudy 42 5.6 29 -1.7 60 60 NE 26 43 29.7 1006 10 16.0934 0 0
11:40 pm 23:40 Cloudy 39 4 30 -1 70 70 N 9 15 29.84 1010 10 16.0934 0 0
11:53 pm 23:53 Cloudy 40 4.4 30 -1.1 68 68 N 9 15 29.75 1007 10 16.0934 0 0

Powered by AerisWeather